ARIANE 42P DEB

Satellite information

Favourite Embed

Satellite Type and Status

DEBRISIN ORBIT

Key statistics

Satellite ARIANE 42P DEB at a glance.

Uptime

12132

Days in orbit

Revolutions

≈ 12.8

Per day

Orbit

LEO

Low Earth Orbit

Inclination

66.1

Latest

Satellite identification and parameters

Extended collection of information and parameters for ARIANE 42P DEB.

Object identification

Identified? True

Debris? True

Object name: ARIANE 42P DEB

International designator: 1992-052H

Object number (NORAD): 44510

Object ID (CCSDS): 44510

Country: FRANCE (FR)

Current information (Y/N): Y

RCS size: SMALL

Orbital parameters

Period: 112.357 minutes

Inclination: 66.0578 deg

SMA: 7713.061 km

Apoapsis: 1393.181 km

Periapsis: 1276.671 km

RAAN: 61.5812 deg

Eccentricy: 0.00755276

Argument of periapsis: 68.4488 deg

Mean anomaly: 292.4556 deg

Mean motion: 12.81629844 rev/day

Mean motion (dot): 0.00001192 rev/day2

B* drag term: 0.0053174294 1/REarth

Two-line elements (TLE)

Creation date: Oct. 28, 2025, 2:18 a.m.

Reference frame: TEME

Reference center: EARTH

Epoch: Oct. 27, 2025, 6:11 p.m. UTC

TLE line 0: 0 ARIANE 42P DEB

TLE line 1: 1 44510U 92052H 25300.75769650 .00001192 00000-0 53174-2 0 9992

TLE line 2: 2 44510 66.0578 61.5812 0075528 68.4488 292.4556 12.81629844289801

Live tracking on map

Real-time ground track for satellite ARIANE 42P DEB.

In-orbit conjunctions

A list of the most updated potential collisions computed for object ARIANE 42P DEB.

Target Orbit TCA Probability of collision Miss distance Type
COSMOS 2339 LEO 2024-11-05 07:26:20 0.0004483031 384.0 (m) PAYLOAD

Associated space launch

The TOPEX/POSEIDON satellite was launched on 10 August 1992 with the objective of "observing and understanding the ocean circulation". A joint project between NASA, the U.S. space agency, and CNES, the French space agency, it carries two radar altimeters and precise orbit determination systems, including the DORIS system. KITSAT-1 (Korean Institute of Technology Satellite) was a collaborative research mission, encompassing the installation of a groundstation in South Korea, participation of Korean engineers in the UoSAT-5 mission, technology transfer and training of students on the MSc courses at Surrey, and the involvement in a engineering and flight microsatellites. The S80/T satellite was built for CNES by Matra Marconi Space using the Surrey Satellite Technology Microbus (Uosat) bus.

ARIANE 42P DEB was lifted into orbit during the mission ‘Ariane 42P | Topex-Poseidon, Kitsat 1 & S80/T’, on board a Ariane 42P space rocket.

The launch took place on Aug. 10, 1992, 11:08 p.m. from Ariane Launch Area 2.

For more information about the launch, click the button.

Launch to space Ariane 42P | Topex-Poseidon, Kitsat 1 & S80/T
Ariane 42P | Topex-Poseidon, Kitsat 1 & S80/T

Agency: N/A

Status: Launch Successful

Launch date: Aug. 10, 1992, 11:08 p.m. UTC

Rocket: Ariane 42P

Launch pad: Ariane Launch Area 2

Location: Guiana Space Centre, French Guiana

...

Latest news about this satellite

There are no fresh news available about this satellite. Check back as we update our databases every day.


Newsletter sign-up

Weekly statistics, charts and insights to help you stay on top of the space industry.